Weather History for HESN - January, 2013

Change the Weather History Date:

Wednesday, January 9, 2013

  Actual Average Record
Temperature  
Mean Temperature 58 °F -  
Max Temperature 69 °F 72 °F 86 °F (1997)
Min Temperature 46 °F 50 °F 41 °F (2002)
Degree Days  
Heating Degree Days 8    
Growing Degree Days 8 (Base 50)    
Moisture  
Dew Point 37 °F    
Average Humidity 46    
Maximum Humidity 66    
Minimum Humidity 28    
Precipitation  
Precipitation 0.00 in 0.00 in - ()
Sea Level Pressure  
Sea Level Pressure 30.13 in    
Wind  
Wind Speed 7 mph ()    
Max Wind Speed 17 mph    
Max Gust Speed -    
Visibility 6.0 miles    
Events      
Averages and records for this station are not official NWS values.
T = Trace of Precipitation, MM = Missing Value Source: Averaged Metar Reports

Daily Weather History Graph

Daily Weather History Graph

Search for Another Location

Airport or City:

Trip Planner

Search our weather history database for the weather conditions in past years. The results will help you decide how hot, cold, wet, or windy it might be!

Date:

Astronomy

Jan. 09, 2013 Rise Set
Actual Time 6:33 AM EET 5:18 PM EET
Civil Twilight 6:08 AM EET 5:43 PM EET
Nautical Twilight 5:40 AM EET 6:11 PM EET
Astronomical Twilight 5:13 AM EET 6:38 PM EET
Moon 3:50 AM EET (1/9) 2:59 PM EET (1/9)
Length of Visible Light 11h 34m
Length of Day
10h 45m
Waning Crescent, 8% of the Moon is Illuminated
Jan 9
Waning Crescent
Jan 11
New
Jan 19
First Quarter
Jan 27
Full
Feb 3
Last Quarter

Hourly Weather History & Observations

Time (EET) Temp. Dew Point Humidity Pressure Visibility Wind Dir Wind Speed Gust Speed Precip Events Conditions
12:00 AM 53.6 °F 33.8 °F 47% 30.12 in - West 6.9 mph - N/A   Clear
1:00 AM 51.8 °F 33.8 °F 50% 30.12 in - Calm Calm - N/A   Clear
2:00 AM 50 °F 32 °F 38% 30.14 in 6 mi SSW 3.5 mph - -  
2:00 AM 50.0 °F 32.0 °F 50% 30.09 in - SSW 3.5 mph - N/A   Clear
3:00 AM 48.2 °F 37.4 °F 66% 30.09 in - SSW 4.6 mph - N/A   Clear
4:00 AM 48.2 °F 37.4 °F 66% 30.09 in - SSW 4.6 mph - N/A   Clear
5:00 AM 48.2 °F 35.6 °F 62% 30.09 in - SSW 4.6 mph - N/A   Clear
6:00 AM 46.4 °F 33.8 °F 62% 30.09 in - Calm Calm - N/A   Clear
7:00 AM 48.2 °F 37.4 °F 66% 30.12 in - West 5.8 mph - N/A   Clear
8:00 AM 53 °F 36 °F 42% 30.16 in 6 mi West 11.5 mph - -  
8:00 AM 53.6 °F 35.6 °F 51% 30.12 in - West 11.5 mph - N/A   Clear
9:00 AM 64.4 °F 44.6 °F 49% 30.15 in - WNW 9.2 mph - N/A   Clear
10:00 AM 64.4 °F 44.6 °F 49% 30.15 in - WNW 9.2 mph - N/A   Clear
11:00 AM 66.2 °F 44.6 °F 46% 30.12 in - WNW 9.2 mph - N/A   Clear
12:00 PM 66.2 °F 42.8 °F 43% 30.12 in - WNW 11.5 mph - N/A   Clear
1:00 PM 68.0 °F 42.8 °F 40% 30.09 in - WNW 16.1 mph - N/A   Clear
2:00 PM 67 °F 43 °F 30% 30.10 in 6 mi WNW 16.1 mph - -  
2:00 PM 68.0 °F 42.8 °F 40% 30.09 in - WNW 16.1 mph - N/A   Clear
3:00 PM 68.0 °F 41.0 °F 37% 30.09 in - WNW 15.0 mph - N/A   Clear
4:00 PM 68.0 °F 39.2 °F 35% 30.09 in - NW 15.0 mph - N/A   Clear
5:00 PM 66.2 °F 39.2 °F 37% 30.12 in - WNW 17.3 mph - N/A   Clear
6:00 PM 62.6 °F 37.4 °F 39% 30.12 in - WNW 16.1 mph - N/A   Clear
7:00 PM 60.8 °F 33.8 °F 36% 30.15 in - NW 10.4 mph - N/A   Clear
8:00 PM 58 °F 34 °F 28% 30.19 in 6 mi NW 6.9 mph - -  
8:00 PM 57.2 °F 33.8 °F 41% 30.18 in - NW 6.9 mph - N/A   Clear
9:00 PM 55.4 °F 32.0 °F 41% 30.18 in - NNW 6.9 mph - N/A   Clear
10:00 PM 53.6 °F 32.0 °F 44% 30.18 in - NW 6.9 mph - N/A   Clear
11:00 PM 51.8 °F 32.0 °F 47% 30.21 in - NW 8.1 mph - N/A   Clear